{"data":{"norad_id":57120,"epoch":"2026-05-25T04:38:18.248064Z","epoch_age_seconds":58644,"freshness":"FRESH","line1":"1 57120U 23090V   26145.19326676  .00000630  00000+0  32420-4 0  9990","line2":"2 57120  43.0016 209.4083 0001008 285.9104  74.1637 15.27577075162031","mean_motion":15.27577075,"eccentricity":0.0001008,"inclination_deg":43.0016,"raan_deg":209.4083,"arg_perigee_deg":285.9104,"mean_anomaly_deg":74.1637,"bstar":3.242e-5,"rev_number":16203,"period_min":94.266929215339,"perigee_km":482.36624611455,"apogee_km":483.74946299723,"semimajor_km":6861.1948545559,"source":"CELESTRAK","updated_at":"2026-05-25T13:38:18.243119Z"}}